Главная страница
METAR-TAF:

METAR-TAF

Аэропорты :

Easton, Мэриленд, США

широта: 38-48N, долгота: 076-04W, высота над уровнем моря: 22 м

Текущие метеонаблюдения

Эта сводка был подготовлена 15 минут назад, в 06:19 UTC
Ветер 7 Узел от юго-западный
Температура 26°C
Влажность 79%
Давление 1014 hPa
Видимость: 16.1 км
ясное небо

METAR: KESN 170619Z AUTO 22007KT 10SM CLR 26/22 A2993 RMK AO2 T02600215

Время: 02:34 (06:34 UTC)


TAF: отсутствует

Метеонаблюдения и прогнозы для более 4000 аэропортов (сводки METAR и TAF).

Имеющиеся станции представлены на карте желтыми и красными точками.

Чтобы увидеть название станции, наведите на нее мышь.

Затем щелкните, чтобы увидеть метеонаблюдения и метеопрогнозы.

Управление картой: чтобы увеличить масштаб, щелкните зеленые кнопки с черным крестиком; чтобы уменьшить масштаб, щелкните зеленую кнопку с тире; для просмотра соседних карт щелкайте зеленые стрелки.


METAR-TAF: